Location: Trout Lake
(45.9980°N, 121.5270°W)
Time: 19:42:04
(UTC-08:00)

SME Rocket - Pass Details

Date: 06 December 2023
Orbit: 550 x 2645 km, 99.9° (Epoch: 22 February)

Event Time Altitude Azimuth Distance (km) Brightness Sun altitude
Rises 18:49:14 0° 162° (SSE) 3,311 6.7 -24.8°
Reaches altitude 10° 18:51:11 10° 163° (SSE) 2,552 6.1 -25.2°
Maximum altitude 18:56:52 89° 250° (WSW) 1,183 4.3 -26.2°
Drops below altitude 10° 19:05:53 10° 345° (NNW) 3,951 7.2 -27.7°
Sets 19:09:32 0° 345° (NNW) 5,256 7.9 -28.4°
